ECHOSTAR 10

Last updated on Sun Dec 07 2025 00:02:46 GMT+0000 (Coordinated Universal Time)

1 28935U 06003A 25340.47624336 -.00000048 00000+0 00000+0 0 9996 2 28935 0.0192 352.4326 0002172 223.7198 280.6400 1.00270488 72537
UTC large
Height (km)
Speed (km/s)
/
Latitude / Longitude
Inclination (degrees)
Orbital Period (minutes)
Azimuth
Elevation
Range (km)
Doppler Factor

Next 0 passes for location: London (51.5072 / 0.1276)

Sorry there are no passes over London.